Capitol Logistics 241


KHSV
Huntsville International Airport
Huntsville, Alabama, US
KMIA
Miami International Airport
Miami, Florida, US

Activity Log

Date Flight Route Aircraft Duration
08/24/2019 CPX241 KHSV RMG ATL YANTI Q89 PRMUS OMN HILEY7 KMIA B763 1h 48m
06/26/2019 CPX241 RMG ATL YANTI Q89 PRMUS OMN HILEY7 B763 1h 55m
05/31/2019 CPX105 RMG ATL YANTI Q89 PRMUS OMN HILEY7 B744 1h 42m
05/04/2019 CPX105 RMG SZW J41 PLYER JUULI SSCOT5 B744 1h 40m
04/10/2019 CPX241 RMG ATL YANTI Q89 PRMUS OMN HILEY7 B763 2h 16m
02/26/2019 CPX105 DCU V49 VUZ SZW J41 PIE CYY9 MD11 1h 39m
02/04/2019 CPX241 RMG ATL J45 AMG OMN MLB ANNEY4 B763 1h 42m
12/21/2018 CPX521 RMG ATL YANTI Q89 PRMUS OMN HILEY7 B763 2h 06m

Route Details

Aircraft Information
Primary: Boeing 767-300BDSF
Backup: Not Available
Route Data
Distance: 629nm
Sched. Duration: 1h 37m
Avg. Duration: 1h 61m (+25m)
Times Flown: 8
Recm'd Route: RMG ATL YANTI Q89 PRMUS OMN HILEY7
Planned Altitude: 37,000ft
Origin Wx: KHSV 281153Z 23006KT 10SM BKN080 OVC095 03/M02 A3014 RMK AO2 SLP206 T00281022 10039 20011 56007
Dest. Wx: KMIA 281153Z 31008KT 10SM BKN050 11/04 A3023 RMK AO2 SLP237 T01110039 10128 20106 53013
Notes:

Financial History
Total Freight: 907,989lbs
Average Load: 113,499lbs/flt
Fuel Used: 196,112lbs
Avg. Fuel Used: 24,514lbs/flt
Fuel Expense: $176,501
Avg. Fuel Expense: $22,063
Avg. Fuel Cost: $0.90/lbs
Total Gross Income: $1,134,986
Pilot Pay: $1,512
Total Expenses: $122,994
Total Revenue: $832,580
Average Revenue: $141,873.22